Location: Keppel Henge
(44.7900°N, 80.9447°W)
Time: 19:45:54
(UTC-04:00)

ISS - Pass Details

Date: 07 October 2017
Orbit: 401 x 408 km, 51.6° (Epoch: 20 October)

Event Time Altitude Azimuth Distance (km) Brightness Sun altitude
Rises 20:40:03 0° 300° (WNW) 2,329 1.4 -19.8°
Reaches altitude 10° 20:42:15 10° 309° (NW) 1,468 -0.1 -20.2°
Enters shadow 20:44:59 34° 3° (N) 701 -2.6 -20.6°
